Theta_e
307 307 307 307 307 307 307 307 307 307 307 307 307 307 307 307 308 313 316 317 313 300 307 306 307 305 303 303 299 301 300 297 293 288 287 289 286 293 290 293 292 289 286 285 286 284 283 299 293 290 297 303 302 302
305 305 305 305 305 306 306 307 307 306 306 306 306 307 307 307 307 309 310 316 314 304 305 312 312 313 310 309 305 303 302 301 301 295 291 291 286 286 288 285 295 286 292 293 292 292 302 302 299 302 304 302 302 301
304 304 305 304 305 305 306 306 306 306 306 306 306 307 307 307 307 309 311 312 309 291 301 303 306 312 313 313 315 302 296 304 299 303 296 289 287 290 286 289 291 294 298 291 292 296 299 300 304 305 305 303 303 303
303 304 304 304 304 304 304 305 305 305 305 305 306 306 306 307 307 308 307 312 310 296 287 298 312 310 314 314 312 312 309 310 308 306 289 287 288 294 290 292 291 294 294 291 293 297 300 301 302 303 303 304 303 301
303 303 303 304 304 304 304 304 304 304 305 305 306 306 306 307 307 308 309 310 312 305 290 294 303 308 312 312 310 310 309 307 302 289 287 289 293 292 294 294 291 295 293 290 291 300 300 300 302 303 302 301 301 299
302 303 303 303 303 303 303 303 303 304 304 304 305 305 306 305 306 304 297 304 308 306 291 286 298 299 306 309 308 306 307 305 302 294 289 293 296 292 286 288 297 299 300 301 298 302 302 302 303 304 301 301 302 302
302 302 303 303 302 302 302 302 302 302 303 303 304 304 305 304 305 300 295 301 304 307 287 286 288 294 296 300 304 304 306 303 299 293 289 294 294 295 287 287 297 300 300 300 302 301 299 301 298 302 302 300 299 299
302 302 302 302 301 301 300 301 301 302 302 302 302 302 303 303 302 298 303 304 305 298 290 285 288 292 297 293 292 297 298 297 295 296 296 294 298 291 287 295 298 298 299 300 300 301 300 301 300 296 296 295 294 294
301 301 300 300 300 300 300 300 301 301 302 302 302 302 302 299 294 296 302 303 304 297 286 285 285 286 296 294 294 294 294 287 298 288 293 296 293 287 293 295 296 297 298 298 300 298 297 293 292 293 293 293 292 293
300 300 299 299 299 299 300 300 300 301 302 302 300 295 290 295 300 302 299 294 292 289 288 285 291 288 295 291 289 290 289 287 286 291 296 287 289 296 298 298 299 300 299 296 292 290 291 290 290 291 292 292 291 289
299 299 298 299 299 299 299 299 300 299 299 299 292 291 299 299 298 292 288 286 289 286 289 290 292 290 295 288 288 291 287 286 283 289 288 287 287 292 296 295 295 293 293 292 292 292 292 292 291 291 289 289 288 288
298 298 298 298 298 299 299 299 298 299 299 297 297 297 296 293 290 286 285 287 285 285 290 288 289 290 292 293 290 289 286 287 282 287 283 281 290 290 290 290 291 291 292 291 292 291 292 291 293 291 289 287 288 286
298 298 298 298 298 299 299 299 297 298 299 298 292 287 288 286 281 280 278 284 285 289 286 286 287 287 288 287 285 285 283 283 285 282 282 287 289 289 289 290 291 292 290 287 290 291 291 291 290 288 287 287 285 284
296 296 297 297 297 297 298 299 298 297 297 288 285 280 282 281 282 284 285 286 287 287 286 288 287 287 288 285 286 283 286 284 280 278 282 287 287 288 290 291 290 290 288 286 286 288 287 286 286 284 284 283 284 283
296 296 296 295 296 296 297 298 297 298 291 286 285 279 281 286 286 286 285 286 288 288 288 287 286 285 285 282 285 283 280 278 280 282 286 289 288 288 289 289 289 288 286 285 287 286 285 285 283 284 282 283 283 282
295 295 294 295 295 296 296 296 296 295 288 284 284 282 284 282 284 282 282 284 289 286 286 286 282 279 280 283 280 280 279 278 284 287 290 289 288 288 289 289 288 288 287 287 287 286 285 284 284 285 284 283 282 282
294 292 294 295 296 296 295 293 292 286 284 281 280 286 285 283 282 284 285 287 290 285 282 282 277 278 284 278 278 283 281 286 290 290 290 290 289 288 289 289 287 287 287 287 286 285 284 284 283 283 284 283 282 281
293 294 295 296 296 294 292 291 287 283 279 282 279 284 283 284 284 284 285 286 284 284 284 281 284 279 278 276 279 286 288 290 290 290 290 290 290 289 289 290 290 290 289 287 285 284 283 282 282 284 284 282 282 283
294 294 296 296 295 291 285 285 287 280 280 283 283 285 285 286 287 288 288 288 289 289 286 283 279 279 280 284 285 287 288 289 288 289 290 290 289 289 288 289 288 288 287 286 284 283 284 283 285 285 285 283 285 286
295 294 295 295 294 288 282 283 287 282 279 282 284 283 284 285 286 286 286 286 286 284 281 280 280 284 285 287 288 288 289 290 289 287 288 289 290 290 290 288 287 288 287 285 284 284 284 283 284 284 285 285 286 285
294 294 294 295 291 289 286 283 282 283 283 282 285 284 283 283 282 283 284 288 284 282 280 284 285 287 288 289 289 290 288 289 288 288 287 287 290 287 287 287 286 287 286 285 285 286 283 284 285 283 283 284 284 284
291 294 287 289 285 285 284 287 284 285 281 283 281 283 282 281 281 282 285 282 282 285 286 286 287 287 287 286 287 289 289 289 289 289 287 287 285 285 286 286 286 285 285 286 287 285 284 284 283 283 284 283 281 283
292 289 285 285 283 283 281 286 280 282 278 280 281 279 278 278 282 283 280 282 283 287 287 287 287 288 287 288 287 288 288 287 287 288 288 286 286 286 287 287 287 285 285 285 285 285 283 282 282 283 283 282 283 283
291 285 283 282 282 279 281 279 282 280 280 277 276 275 278 279 280 279 277 281 284 287 286 285 286 285 286 286 285 286 287 287 286 285 286 285 285 286 287 287 287 286 287 286 283 285 282 283 283 282 282 282 282 282
281 281 282 278 283 278 276 276 277 276 274 276 276 276 279 279 277 277 277 281 284 285 286 286 285 284 282 284 286 286 288 287 285 283 286 287 288 285 283 283 284 285 285 284 283 283 283 283 284 282 282 282 282 282
276 281 279 279 279 277 277 274 274 275 276 275 276 280 278 277 275 274 278 284 287 286 286 285 286 285 284 285 285 284 285 284 285 285 288 287 286 286 285 283 283 283 285 286 284 283 283 284 283 282 282 282 281 281
276 277 281 284 281 280 277 276 278 278 274 274 277 274 275 272 274 279 284 285 285 287 288 288 287 286 285 285 284 284 284 283 283 285 285 286 286 287 288 286 285 287 286 284 285 285 284 284 283 282 282 283 282 281
281 282 276 279 277 279 277 276 275 275 277 280 277 273 274 275 277 284 285 287 287 288 286 286 286 287 286 286 283 282 283 282 282 283 284 285 285 285 283 284 283 281 285 284 284 285 285 284 283 282 282 281 281 280
280 282 281 275 276 277 278 278 279 281 282 279 278 277 279 283 287 285 285 284 283 283 282 283 285 286 285 285 283 282 283 282 281 280 282 283 283 283 284 284 283 282 283 283 281 283 283 282 281 280 279 279 279 278
280 281 279 278 275 276 281 282 282 284 283 283 283 284 284 283 283 280 280 281 280 281 281 281 281 281 283 283 284 284 283 283 283 283 283 284 285 285 283 283 283 282 282 281 280 279 278 278 277 277 277 276 277 276
281 279 278 278 278 281 284 280 279 280 280 280 282 280 282 283 279 276 277 276 276 276 279 280 281 283 282 282 282 282 281 283 282 282 283 284 284 284 283 283 283 282 282 281 280 280 279 278 277 275 274 273 273 273
277 277 277 275 277 278 277 278 279 277 279 277 279 280 278 279 279 276 274 275 277 277 276 276 279 281 281 282 282 283 282 282 282 280 280 282 283 283 283 283 283 283 282 281 280 279 278 277 276 275 275 273 273 272
278 278 278 277 277 277 278 277 277 277 276 276 277 277 278 279 278 273 275 274 273 273 272 274 277 280 279 279 279 279 279 278 279 279 279 280 281 282 282 282 282 281 280 280 279 278 276 276 275 275 274 272 271 270
Wind_Speed
7 13 14 14 15 14 15 15 14 14 13 13 13 13 12 11 10 5 2 7 4 3 6 9 6 10 4 5 5 4 0 2 2 4 4 6 4 6 4 13 6 8 5 5 5 9 12 4 3 5 15 24 28 28
3 6 8 12 14 14 15 15 16 14 15 14 15 15 14 13 12 8 2 4 3 3 3 5 13 18 15 16 9 4 7 4 3 3 3 3 4 3 4 11 6 6 12 11 14 10 14 11 16 18 24 25 28 24
6 5 6 10 13 13 15 14 14 15 16 16 16 15 15 15 15 13 3 3 2 1 4 4 12 18 11 16 14 8 2 9 5 8 4 4 11 3 8 8 11 6 12 12 14 13 26 20 21 25 28 24 23 23
4 5 5 5 9 11 13 16 15 16 16 16 17 17 16 16 17 17 4 3 2 1 3 6 9 15 12 14 17 16 18 12 10 6 5 5 8 8 6 8 8 10 6 8 18 22 29 23 23 23 26 25 24 18
0 4 6 5 2 9 12 15 16 16 16 15 16 16 15 16 18 11 6 4 6 4 4 3 3 11 13 12 17 16 16 16 9 3 4 7 4 5 7 10 11 7 8 8 19 26 24 28 25 28 30 26 23 17
2 1 4 6 8 9 5 6 9 10 10 10 11 13 13 13 11 4 2 3 4 4 3 3 2 5 7 16 17 19 13 8 8 4 4 4 3 5 5 8 12 12 14 19 21 23 27 30 31 30 24 24 24 20
4 1 3 5 8 11 14 14 14 14 11 11 8 4 7 13 6 3 4 4 1 3 2 4 4 2 2 3 5 8 10 4 5 4 4 6 7 5 4 19 30 21 24 23 23 23 25 25 20 24 25 23 20 17
7 4 4 7 9 10 12 12 12 12 11 11 11 11 8 7 3 3 2 3 4 2 3 3 3 3 3 3 3 1 2 2 3 5 2 5 7 4 9 21 25 24 24 22 21 17 17 20 22 18 17 18 19 16
10 10 11 11 10 9 10 11 10 10 11 11 11 9 3 2 2 1 3 1 1 2 3 3 3 1 2 2 1 1 2 2 3 5 6 7 7 10 17 23 22 24 22 24 19 18 17 13 17 17 18 19 16 11
14 14 13 12 12 11 11 11 9 9 10 11 3 2 2 1 2 4 1 0 1 2 2 3 0 1 4 2 1 2 3 4 5 5 3 5 14 22 24 24 22 22 18 10 10 10 12 15 16 17 14 10 7 4
14 13 12 12 11 11 11 10 11 11 4 1 2 2 2 1 1 2 2 3 2 3 3 2 3 5 3 6 4 5 3 3 5 3 4 4 6 13 11 10 7 6 5 5 7 10 10 12 12 8 5 5 4 4
13 12 12 11 11 10 9 8 8 2 2 3 4 2 1 0 2 2 3 3 4 3 2 2 2 3 2 2 4 3 4 5 8 3 3 4 5 4 3 3 4 5 5 7 9 10 9 5 4 4 3 3 3 3
13 12 11 11 10 10 10 9 5 10 5 3 3 2 1 2 4 5 6 4 3 3 1 1 1 1 1 1 4 2 4 1 2 3 3 4 5 3 2 3 5 6 5 8 12 10 7 5 3 3 4 3 2 1
11 11 11 11 12 11 9 10 10 5 2 2 3 5 4 5 5 4 2 2 2 1 2 1 1 2 2 3 2 6 3 2 5 5 6 2 3 5 5 5 7 8 7 7 10 7 4 3 3 2 1 1 1 1
13 12 11 10 10 10 9 9 7 2 2 2 3 5 6 1 1 1 1 1 1 1 2 2 3 2 3 4 4 4 5 6 5 4 1 3 3 6 8 8 9 6 6 7 8 5 5 4 4 3 2 1 1 1
14 11 5 10 11 12 12 8 2 2 1 1 3 4 3 2 3 3 3 2 2 2 1 1 3 4 7 5 7 7 5 7 7 3 5 6 10 10 11 9 8 8 8 8 8 6 5 4 5 4 3 1 1 1
12 3 11 12 11 13 10 4 2 3 3 4 4 3 3 2 3 2 3 3 3 3 2 2 5 12 1 5 5 5 8 10 8 8 9 12 11 13 14 12 9 8 9 10 8 4 4 3 3 4 3 3 1 1
2 5 13 14 9 9 1 1 2 3 7 5 5 5 6 5 5 4 5 5 5 4 3 5 4 5 6 9 13 9 8 8 9 10 11 12 14 14 14 16 14 11 12 7 6 4 5 6 6 4 3 4 3 1
6 7 14 18 8 4 4 3 2 4 6 4 3 5 4 4 5 7 3 6 7 6 2 4 7 8 10 9 9 9 9 10 11 13 12 14 13 13 14 14 12 11 10 7 6 6 5 7 3 2 3 4 2 2
11 10 15 16 8 3 3 3 2 4 4 4 4 5 4 4 1 2 5 5 6 4 7 7 10 11 12 13 13 12 11 11 11 12 14 12 10 11 12 10 7 6 4 5 5 5 5 4 3 2 3 3 3 2
10 5 8 10 3 2 2 4 5 4 3 4 2 3 3 1 3 5 5 5 7 7 9 11 13 13 15 14 13 12 13 13 13 12 13 14 10 7 8 6 6 4 4 5 6 7 5 5 4 4 4 3 2 1
2 12 3 3 3 6 4 6 2 2 3 2 3 4 4 5 6 5 4 6 8 12 13 13 13 13 14 16 15 16 15 17 16 12 14 14 11 8 6 4 4 5 4 5 6 4 4 4 5 5 5 4 3 2
7 5 3 4 6 6 1 5 6 6 5 4 3 4 4 5 4 2 5 6 7 11 10 11 15 16 16 18 17 18 17 15 13 13 11 10 9 6 4 4 3 4 5 5 4 4 5 6 7 6 4 3 3 3
4 4 4 5 7 4 5 6 5 4 5 4 4 6 7 5 4 5 8 11 13 10 9 13 10 10 11 13 12 12 11 9 11 10 8 8 6 7 6 5 4 5 4 4 5 5 6 6 7 5 5 5 5 4
5 7 5 6 5 6 7 6 5 5 6 6 6 7 4 3 4 6 13 14 10 10 7 6 5 5 8 10 9 9 9 8 9 9 7 6 4 3 3 3 3 3 4 6 6 7 7 7 6 6 6 6 6 4
7 9 9 10 7 8 9 7 9 9 6 6 8 3 2 4 6 9 5 5 5 6 5 6 5 4 6 7 10 9 7 2 6 7 5 5 5 5 5 6 4 4 5 4 6 9 9 8 7 8 8 8 6 5
8 9 6 4 5 4 4 0 2 4 8 10 5 7 6 7 9 6 4 4 5 4 4 4 5 6 8 8 6 6 5 4 6 5 3 1 3 3 3 3 4 1 7 8 7 7 8 8 8 8 6 5 4 4
8 6 13 9 5 4 7 5 7 8 7 5 5 8 7 8 7 3 4 1 3 2 3 5 6 7 7 7 6 6 5 3 2 2 2 3 2 2 2 2 2 1 5 6 5 4 4 5 6 6 5 5 3 3
8 5 5 7 6 6 9 10 11 8 5 6 7 10 9 5 3 2 1 0 2 3 5 5 5 3 5 5 4 4 4 4 5 7 10 6 4 3 3 3 4 4 4 5 5 4 6 6 5 4 3 1 1 2
8 7 9 9 10 12 11 8 5 1 3 6 7 9 10 6 1 1 2 2 3 4 4 5 6 6 6 5 5 4 4 5 6 6 6 6 4 5 6 5 6 6 6 7 7 8 9 7 7 4 2 2 3 3
4 8 5 7 7 6 4 1 1 2 3 3 4 7 12 3 2 1 1 3 4 4 5 5 5 4 5 4 4 5 4 0 3 4 3 2 3 6 7 6 6 6 6 6 5 5 5 4 3 3 3 3 3 3
6 8 6 6 5 2 3 4 3 5 4 5 5 5 2 3 4 3 3 4 2 3 4 4 4 4 3 2 2 3 6 4 4 3 3 3 5 6 6 5 5 5 5 5 5 5 5 5 4 4 4 4 4 3
4 5 4 3 3 5 5 5 6 4 4 4 5 3 4 3 3 3 2 3 2 4 5 5 5 3 5 6 6 5 7 7 9 9 10 10 8 7 5 4 4 4 5 4 3 3 4 5 4 4 4 3 3 3
Wind_Direction
229 217 207 203 211 207 205 202 204 200 196 198 191 183 175 183 201 198 185 190 201 184 247 205 214 228 205 224 220 131 185 220 115 199 221 232 228 235 252 251 253 244 230 209 230 240 281 327 163 240 314 315 310 312
359 260 232 214 206 209 213 209 205 197 195 197 196 189 181 181 192 190 235 196 188 191 248 247 234 243 247 250 259 196 232 237 204 232 236 272 262 247 242 267 216 255 211 248 235 247 287 285 283 295 293 298 303 306
14 356 252 228 220 213 213 211 210 205 198 197 197 193 189 186 186 191 184 158 146 96 269 195 225 237 228 233 235 243 242 225 205 200 238 228 244 216 251 253 254 260 255 254 272 246 271 280 294 287 294 295 303 302
22 9 348 269 240 230 220 214 208 207 206 199 196 196 188 187 192 196 188 192 179 120 229 229 235 243 234 229 228 219 244 246 253 257 222 208 240 197 234 248 234 250 223 251 271 280 285 273 284 302 303 304 309 314
60 53 36 25 336 235 228 218 208 207 203 202 196 195 193 194 198 204 214 193 212 219 225 219 245 246 228 222 223 224 230 239 243 243 218 240 231 222 246 262 251 193 225 238 267 282 287 294 302 306 307 313 314 309
230 140 60 56 63 66 71 214 214 201 189 197 195 188 185 182 163 123 283 205 215 163 280 283 286 253 210 212 226 237 239 232 228 210 231 236 246 212 266 264 248 237 263 267 276 286 294 297 299 307 314 311 305 313
199 146 106 87 87 87 83 76 73 73 86 95 103 118 175 161 173 165 185 140 123 156 114 293 275 271 246 251 242 242 235 229 229 226 216 241 249 211 240 272 281 278 282 284 284 290 293 299 308 314 309 311 313 310
197 198 141 121 104 96 93 91 92 96 93 90 87 86 84 95 36 20 15 146 95 99 92 248 262 252 206 183 211 142 222 228 221 243 242 239 261 192 250 262 274 286 291 296 300 306 305 309 303 308 319 318 314 308
173 145 133 122 109 105 104 104 109 110 111 109 109 113 88 51 73 288 333 57 53 171 208 211 222 285 159 162 318 245 255 238 240 229 225 238 235 231 255 272 282 286 292 303 315 307 308 308 310 314 319 315 310 314
142 139 132 125 121 118 113 110 108 108 112 118 94 100 147 182 307 203 70 101 176 226 255 247 320 215 230 111 323 250 210 224 246 228 222 226 249 259 267 273 277 286 312 312 296 309 318 313 319 320 329 342 359 5
120 124 128 126 123 122 119 119 117 115 130 104 89 81 65 360 140 165 214 194 194 234 204 220 233 241 193 233 229 223 222 225 244 216 231 235 261 251 287 300 322 337 331 323 302 296 298 300 304 315 320 316 330 344
125 123 122 119 121 127 137 134 118 73 51 67 81 94 43 148 160 257 219 189 207 238 173 222 164 220 231 284 229 194 235 204 239 87 224 244 247 12 4 14 344 325 318 315 309 293 291 270 259 297 298 281 306 320
118 113 109 123 132 132 135 133 105 109 131 74 64 102 155 109 207 222 205 200 207 159 90 360 95 305 301 1 263 270 253 296 335 234 237 269 4 304 325 316 296 301 322 320 304 290 279 257 319 296 269 285 319 354
119 121 123 120 121 120 124 124 121 101 92 101 157 175 207 196 225 209 261 30 61 17 91 119 278 266 229 231 245 274 227 226 234 228 230 86 344 345 310 292 289 295 307 285 290 277 237 246 266 282 332 332 327 360
140 132 132 134 130 133 132 131 117 60 86 158 172 213 219 215 263 90 57 213 197 203 214 253 242 250 245 255 223 265 237 237 242 274 260 344 308 282 282 267 265 268 277 289 278 242 226 228 230 220 207 197 35 293
142 131 155 155 150 142 128 117 108 83 65 200 252 229 141 225 213 192 185 234 189 143 90 241 252 252 237 229 213 226 258 251 268 228 310 322 317 310 307 277 259 272 279 270 252 234 229 212 214 206 164 135 44 6
150 160 167 164 156 143 145 131 154 155 204 224 234 246 257 289 268 253 205 197 147 164 225 188 228 224 309 230 228 224 248 277 302 312 312 317 312 305 306 283 250 250 262 261 246 222 237 221 211 210 205 166 140 32
136 150 163 166 155 120 50 3 120 196 235 230 234 213 212 224 230 218 212 182 176 199 211 230 273 234 242 246 254 264 281 289 281 284 299 301 308 302 295 288 275 275 280 246 214 196 202 196 218 227 169 147 156 186
159 158 158 150 148 118 157 171 229 240 226 227 234 225 223 234 226 251 241 196 215 235 226 223 235 239 244 257 269 280 284 284 283 297 293 298 294 279 273 276 271 275 260 223 186 181 205 215 233 198 169 165 204 191
165 163 160 155 156 137 158 171 195 230 222 213 221 228 226 233 303 235 229 215 203 201 221 229 246 255 260 262 266 273 281 285 287 286 285 288 291 293 293 281 260 257 214 169 173 177 206 204 188 172 168 172 188 205
156 197 180 165 198 200 253 178 199 225 220 227 227 220 250 221 237 245 249 204 218 228 245 238 247 252 257 266 274 279 278 275 269 269 281 287 289 288 272 261 239 200 186 179 187 199 206 210 159 155 163 162 154 184
155 155 92 141 188 172 234 198 245 147 201 246 186 213 249 245 243 229 219 225 240 240 240 250 256 263 265 266 266 264 265 266 270 273 270 272 275 268 255 239 196 190 189 203 215 209 193 167 161 169 177 156 168 191
124 116 168 178 185 207 180 152 184 196 223 201 171 217 222 225 220 159 236 238 248 243 252 258 261 266 266 271 276 277 272 271 271 269 270 263 256 249 219 191 204 229 234 219 204 178 167 167 168 167 144 163 190 196
116 178 193 202 201 188 152 194 206 203 196 183 202 239 245 224 173 227 249 251 254 268 267 270 271 270 274 267 264 268 277 282 273 266 259 253 241 209 206 218 233 228 223 160 167 162 164 170 158 162 169 190 205 236
199 186 210 206 188 175 196 199 201 216 229 195 224 238 224 175 233 253 256 270 277 270 271 281 259 250 263 275 278 275 275 280 265 258 252 218 211 142 197 217 205 188 159 159 176 180 176 169 170 182 198 219 232 250
226 197 206 197 182 192 193 197 202 207 228 218 229 225 168 211 228 243 252 263 250 249 208 213 253 274 258 252 275 287 299 323 282 255 260 214 200 206 212 193 178 188 196 191 178 179 178 174 179 196 214 226 233 247
211 211 202 205 183 172 192 310 196 204 197 207 198 181 192 223 232 237 241 217 231 209 210 240 263 268 276 285 273 279 291 276 252 294 326 196 175 184 183 185 204 177 167 183 185 184 181 181 194 209 222 236 237 236
223 209 207 188 200 205 227 204 199 216 225 202 165 190 213 213 235 224 225 196 212 209 259 271 265 264 272 285 294 294 285 255 235 212 144 116 101 117 131 112 72 132 171 175 179 168 169 182 196 204 219 234 230 220
210 177 172 195 191 194 216 225 228 218 192 173 225 237 247 244 291 297 39 329 320 278 277 284 282 261 265 259 263 269 240 200 207 227 218 195 191 194 159 136 127 142 157 137 116 130 137 134 133 137 143 238 283 227
212 183 216 207 204 223 223 198 243 286 203 234 247 256 262 251 195 63 261 279 281 274 289 293 287 280 277 284 289 271 240 238 235 239 265 250 207 143 153 146 139 134 134 127 126 120 117 116 116 118 142 198 216 212
152 180 224 204 230 236 243 135 210 207 214 229 212 241 255 288 149 110 16 328 292 270 267 291 289 279 283 289 291 294 278 214 280 271 279 305 150 143 140 140 137 139 141 144 148 156 158 163 173 173 191 207 191 218
190 199 196 216 237 160 164 208 205 225 219 217 227 214 221 227 241 132 26 339 344 350 360 329 319 332 351 344 22 52 57 57 37 34 50 103 113 114 124 127 131 143 152 156 161 165 182 197 200 205 198 205 204 231
210 203 214 252 222 219 189 206 208 218 205 223 223 211 217 251 266 73 43 19 354 347 325 317 316 360 45 53 59 60 53 52 51 60 66 72 81 94 107 116 127 139 152 165 172 182 188 197 204 206 206 209 215 229